,,Stat5,,Stat1,,Stat2,,Stat3,,Stat4,,Wind1,,Wind1,
time,status,PA1M_AVG,status,PR1M_SUM,status,RH1M_AVG,status,SR1M_AVG,status,TA1M_AVG,status,W1dAve1m,status,W1sAve1m,
2002-03-27, 00:00:00,VALID,917.912,VALID,0,VALID,96.8136,VALID,0.0169808,VALID,20.1773,VALID,88,VALID,0.328547,
2002-03-27, 00:01:00,VALID,917.903,VALID,0,VALID,96.9891,VALID,0,VALID,20.2126,VALID,119,VALID,0.618189,
2002-03-27, 00:02:00,VALID,917.89,VALID,0,VALID,97.0692,VALID,0.0169808,VALID,20.2581,VALID,127,VALID,0.572716,
2002-03-27, 00:03:00,VALID,917.896,VALID,0,VALID,96.9586,VALID,0,VALID,20.2907,VALID,135,VALID,0.306691,
2002-03-27, 00:04:00,VALID,917.889,VALID,0,VALID,96.7767,VALID,0.0169808,VALID,20.3063,VALID,141,VALID,0.446957,
2002-03-27, 00:05:00,VALID,917.885,VALID,0,VALID,96.689,VALID,0,VALID,20.3165,VALID,140,VALID,0.414463,
2002-03-27, 00:06:00,VALID,917.893,VALID,0,VALID,96.5924,VALID,0.0339617,VALID,20.3225,VALID,132,VALID,0.51317,
2002-03-27, 00:07:00,VALID,917.883,VALID,0,VALID,96.703,VALID,0.0169808,VALID,20.3416,VALID,112,VALID,0.643945,
2002-03-27, 00:08:00,VALID,917.883,VALID,0,VALID,96.5835,VALID,0.0339617,VALID,20.3617,VALID,91,VALID,0.640408,
2002-03-27, 00:09:00,VALID,917.872,VALID,0,VALID,96.586,VALID,0.0169808,VALID,20.3908,VALID,92,VALID,0.767144,
2002-03-27, 00:10:00,VALID,917.853,VALID,0,VALID,96.2935,VALID,0.0169808,VALID,20.4067,VALID,88,VALID,0.596917,
2002-03-27, 00:11:00,VALID,917.842,VALID,0,VALID,95.9845,VALID,-0.0679233,VALID,20.3851,VALID,82,VALID,0.641447,
2002-03-27, 00:12:00,VALID,917.817,VALID,0,VALID,95.8866,VALID,-0.0679233,VALID,20.3533,VALID,81,VALID,0.792019,
2002-03-27, 00:13:00,VALID,917.79,VALID,0,VALID,96.1142,VALID,-0.101885,VALID,20.3404,VALID,81,VALID,0.866765,
2002-03-27, 00:14:00,VALID,917.783,VALID,0,VALID,96.3279,VALID,-0.101885,VALID,20.3657,VALID,93,VALID,0.853571,
2002-03-27, 00:15:00,VALID,917.763,VALID,0,VALID,96.4296,VALID,-0.0679233,VALID,20.4142,VALID,101,VALID,0.851974,
2002-03-27, 00:16:00,VALID,917.749,VALID,0,VALID,96.2732,VALID,-0.0849042,VALID,20.4565,VALID,101,VALID,0.653927,
2002-03-27, 00:17:00,VALID,917.74,VALID,0,VALID,95.9489,VALID,-0.0849042,VALID,20.4786,VALID,95,VALID,0.612043,
2002-03-27, 00:18:00,VALID,917.727,VALID,0,VALID,95.5522,VALID,-0.0849042,VALID,20.4629,VALID,102,VALID,0.529883,
2002-03-27, 00:19:00,VALID,917.715,VALID,0,VALID,95.6298,VALID,-0.0679233,VALID,20.4597,VALID,132,VALID,0.657689,
2002-03-27, 00:20:00,VALID,917.683,VALID,0,VALID,95.7086,VALID,-0.0509425,VALID,20.4691,VALID,122,VALID,0.854646,
2002-03-27, 00:21:00,VALID,917.66,VALID,0,VALID,95.6501,VALID,-0.0849042,VALID,20.4861,VALID,131,VALID,0.684375,
2002-03-27, 00:22:00,VALID,917.63,VALID,0,VALID,95.5509,VALID,-0.0509425,VALID,20.4689,VALID,136,VALID,0.812901,
2002-03-27, 00:23:00,VALID,917.613,VALID,0,VALID,95.4746,VALID,-0.0849042,VALID,20.4627,VALID,134,VALID,0.946205,
2002-03-27, 00:24:00,VALID,917.594,VALID,0,VALID,95.5941,VALID,-0.0849042,VALID,20.4632,VALID,133,VALID,1.05469,
2002-03-27, 00:25:00,VALID,917.589,VALID,0,VALID,95.6412,VALID,-0.0679233,VALID,20.4597,VALID,116,VALID,0.66276,
2002-03-27, 00:26:00,VALID,917.579,VALID,0,VALID,95.6666,VALID,-0.0509425,VALID,20.456,VALID,101,VALID,0.746745,
2002-03-27, 00:27:00,VALID,917.576,VALID,0,VALID,95.6895,VALID,-0.101885,VALID,20.4694,VALID,103,VALID,0.911458,
2002-03-27, 00:28:00,VALID,917.563,VALID,0,VALID,95.5903,VALID,-0.0339617,VALID,20.4627,VALID,96,VALID,0.88199,
2002-03-27, 00:29:00,VALID,917.54,VALID,0,VALID,95.5954,VALID,-0.0679233,VALID,20.4565,VALID,104,VALID,0.833059,
2002-03-27, 00:30:00,VALID,917.513,VALID,0,VALID,95.6921,VALID,-0.0679233,VALID,20.4594,VALID,121,VALID,0.773438,
2002-03-27, 00:31:00,VALID,917.489,VALID,0,VALID,95.5916,VALID,-0.101885,VALID,20.4438,VALID,136,VALID,0.642578,
2002-03-27, 00:32:00,VALID,917.442,VALID,0,VALID,95.5814,VALID,-0.101885,VALID,20.4207,VALID,124,VALID,0.648015,
2002-03-27, 00:33:00,VALID,917.414,VALID,0,VALID,95.5535,VALID,-0.0849042,VALID,20.3849,VALID,139,VALID,0.52611,
2002-03-27, 00:34:00,VALID,917.408,VALID,0,VALID,95.6196,VALID,-0.0509425,VALID,20.3625,VALID,136,VALID,0.570913,
2002-03-27, 00:35:00,VALID,917.398,VALID,0,VALID,95.7137,VALID,-0.101885,VALID,20.3305,VALID,135,VALID,0.499399,
2002-03-27, 00:36:00,VALID,917.38,VALID,0,VALID,95.8459,VALID,-0.0509425,VALID,20.3038,VALID,135,VALID,0.373944,
2002-03-27, 00:37:00,VALID,917.386,VALID,0,VALID,95.9108,VALID,-0.0679233,VALID,20.2914,VALID,123,VALID,0.205387,
2002-03-27, 00:38:00,VALID,917.371,VALID,0,VALID,95.392,VALID,-0.0849042,VALID,20.2174,VALID,116,VALID,0.00240385,
2002-03-27, 00:39:00,VALID,917.371,VALID,0,VALID,95.1783,VALID,-0.0679233,VALID,20.0879,VALID,116,VALID,0,
2002-03-27, 00:40:00,VALID,917.369,VALID,0,VALID,95.4568,VALID,-0.101885,VALID,20.0397,VALID,116,VALID,0,
2002-03-27, 00:41:00,VALID,917.361,VALID,0,VALID,95.6221,VALID,0.0169808,VALID,20.0093,VALID,116,VALID,0,
2002-03-27, 00:42:00,VALID,917.352,VALID,0,VALID,95.673,VALID,0.0509425,VALID,19.9668,VALID,116,VALID,0,
2002-03-27, 00:43:00,VALID,917.336,VALID,0,VALID,95.9947,VALID,0.0339617,VALID,19.9673,VALID,116,VALID,0.160373,
2002-03-27, 00:44:00,VALID,917.303,VALID,0,VALID,96.4538,VALID,0.0509425,VALID,20.0091,VALID,118,VALID,0.523655,
2002-03-27, 00:45:00,VALID,917.271,VALID,0,VALID,96.5631,VALID,0.0339617,VALID,20.0091,VALID,118,VALID,0.562294,
2002-03-27, 00:46:00,VALID,917.241,VALID,0,VALID,96.7004,VALID,0.0169808,VALID,20.0029,VALID,117,VALID,0.65625,
2002-03-27, 00:47:00,VALID,917.199,VALID,0,VALID,96.9662,VALID,0.0169808,VALID,20.0054,VALID,118,VALID,0.958036,
2002-03-27, 00:48:00,VALID,917.153,VALID,0,VALID,97.1964,VALID,0.0339617,VALID,20.022,VALID,120,VALID,1.05536,
2002-03-27, 00:49:00,VALID,917.124,VALID,0,VALID,97.4024,VALID,0.0169808,VALID,20.0538,VALID,112,VALID,0.807771,
2002-03-27, 00:50:00,VALID,917.105,VALID,0,VALID,97.4036,VALID,0.0679233,VALID,20.0829,VALID,103,VALID,0.639824,
2002-03-27, 00:51:00,VALID,917.089,VALID,0,VALID,97.2345,VALID,0.0339617,VALID,20.0802,VALID,74,VALID,0.693164,
2002-03-27, 00:52:00,VALID,917.068,VALID,0,VALID,96.8441,VALID,0.0169808,VALID,20.0121,VALID,70,VALID,0.673725,
2002-03-27, 00:53:00,VALID,917.068,VALID,0,VALID,96.7627,VALID,0.0339617,VALID,19.9572,VALID,74,VALID,0.724873,
2002-03-27, 00:54:00,VALID,917.029,VALID,0,VALID,97.0934,VALID,0.0169808,VALID,19.9666,VALID,100,VALID,0.657051,
2002-03-27, 00:55:00,VALID,917.025,VALID,0,VALID,97.2154,VALID,0.0509425,VALID,19.9957,VALID,131,VALID,0.619992,
2002-03-27, 00:56:00,VALID,916.997,VALID,0,VALID,97.2205,VALID,-0.0339617,VALID,20.0004,VALID,128,VALID,0.828526,
2002-03-27, 00:57:00,VALID,916.982,VALID,0,VALID,97.1188,VALID,-0.0679233,VALID,20.0012,VALID,128,VALID,0.737723,
2002-03-27, 00:58:00,VALID,916.96,VALID,0,VALID,97.0438,VALID,-0.0509425,VALID,19.982,VALID,126,VALID,0.733008,
2002-03-27, 00:59:00,VALID,916.933,VALID,0,VALID,97.1264,VALID,-0.0509425,VALID,19.9654,VALID,123,VALID,0.891059,
2002-03-27, 01:00:00,VALID,916.91,VALID,0,VALID,97.0972,VALID,-0.0679233,VALID,19.9522,VALID,122,VALID,0.695095,
2002-03-27, 01:01:00,VALID,916.882,VALID,0,VALID,97.2676,VALID,-0.0849042,VALID,19.9589,VALID,124,VALID,0.82348,
2002-03-27, 01:02:00,VALID,916.859,VALID,0,VALID,97.4062,VALID,-0.0849042,VALID,19.9716,VALID,137,VALID,0.798725,
2002-03-27, 01:03:00,VALID,916.842,VALID,0,VALID,97.4392,VALID,-0.0679233,VALID,19.9977,VALID,114,VALID,0.623522,
2002-03-27, 01:04:00,VALID,916.84,VALID,0,VALID,97.3401,VALID,-0.0509425,VALID,19.9912,VALID,112,VALID,0.616132,
2002-03-27, 01:05:00,VALID,916.832,VALID,0,VALID,97.4342,VALID,-0.0509425,VALID,19.9917,VALID,115,VALID,0.915179,
2002-03-27, 01:06:00,VALID,916.825,VALID,0,VALID,97.5626,VALID,-0.101885,VALID,20.0114,VALID,115,VALID,1.01912,
2002-03-27, 01:07:00,VALID,916.818,VALID,0,VALID,97.602,VALID,-0.101885,VALID,20.0268,VALID,114,VALID,1.09523,
2002-03-27, 01:08:00,VALID,916.789,VALID,0,VALID,97.6274,VALID,-0.0509425,VALID,20.0499,VALID,119,VALID,1.0787,
2002-03-27, 01:09:00,VALID,916.767,VALID,0,VALID,97.6224,VALID,-0.0339617,VALID,20.0429,VALID,116,VALID,1.00977,
2002-03-27, 01:10:00,VALID,916.735,VALID,0,VALID,97.5906,VALID,-0.0509425,VALID,20.0534,VALID,117,VALID,0.959087,
2002-03-27, 01:11:00,VALID,916.692,VALID,0,VALID,97.5206,VALID,0,VALID,20.0228,VALID,126,VALID,0.935855,
2002-03-27, 01:12:00,VALID,916.657,VALID,0,VALID,97.4837,VALID,0,VALID,20.0128,VALID,126,VALID,0.858008,
2002-03-27, 01:13:00,VALID,916.636,VALID,0,VALID,97.466,VALID,-0.0169808,VALID,19.9905,VALID,121,VALID,0.918069,
2002-03-27, 01:14:00,VALID,916.622,VALID,0,VALID,97.4723,VALID,0,VALID,19.9838,VALID,117,VALID,0.879687,
2002-03-27, 01:15:00,VALID,916.616,VALID,0,VALID,97.6122,VALID,0.0169808,VALID,19.981,VALID,109,VALID,1.25,
2002-03-27, 01:16:00,VALID,916.615,VALID,0,VALID,97.5753,VALID,-0.0169808,VALID,20.0007,VALID,100,VALID,0.996745,
2002-03-27, 01:17:00,VALID,916.626,VALID,0,VALID,97.5308,VALID,0,VALID,19.9939,VALID,98,VALID,0.802517,
2002-03-27, 01:18:00,VALID,916.616,VALID,0,VALID,97.658,VALID,-0.0169808,VALID,19.9972,VALID,113,VALID,1.19251,
2002-03-27, 01:19:00,VALID,916.592,VALID,0,VALID,97.658,VALID,0.0169808,VALID,20.0193,VALID,124,VALID,1.00884,
2002-03-27, 01:20:00,VALID,916.578,VALID,0,VALID,97.5206,VALID,0,VALID,20.0198,VALID,131,VALID,0.752056,
2002-03-27, 01:21:00,VALID,916.557,VALID,0,VALID,97.4113,VALID,0,VALID,19.9905,VALID,135,VALID,0.691934,
2002-03-27, 01:22:00,VALID,916.53,VALID,0,VALID,97.4087,VALID,-0.0169808,VALID,19.9875,VALID,133,VALID,0.621311,
2002-03-27, 01:23:00,VALID,916.519,VALID,0,VALID,97.3808,VALID,0,VALID,19.9644,VALID,122,VALID,0.723818,
2002-03-27, 01:24:00,VALID,916.501,VALID,0,VALID,97.3757,VALID,-0.0169808,VALID,19.9582,VALID,115,VALID,0.767681,
2002-03-27, 01:25:00,VALID,916.495,VALID,0,VALID,97.5105,VALID,0,VALID,19.9509,VALID,120,VALID,0.985777,
2002-03-27, 01:26:00,VALID,916.492,VALID,0,VALID,97.5219,VALID,0,VALID,19.9611,VALID,112,VALID,0.990184,
2002-03-27, 01:27:00,VALID,916.474,VALID,0,VALID,97.5804,VALID,-0.0169808,VALID,19.9646,VALID,118,VALID,1.08214,
2002-03-27, 01:28:00,VALID,916.465,VALID,0,VALID,97.6618,VALID,0,VALID,19.9907,VALID,117,VALID,0.940995,
2002-03-27, 01:29:00,VALID,916.45,VALID,0,VALID,97.6134,VALID,-0.0339617,VALID,20.0106,VALID,109,VALID,0.784856,
2002-03-27, 01:30:00,VALID,916.435,VALID,0,VALID,97.5448,VALID,-0.0169808,VALID,20.0071,VALID,116,VALID,0.766226,
2002-03-27, 01:31:00,VALID,916.406,VALID,0,VALID,97.5181,VALID,-0.0169808,VALID,20.0004,VALID,122,VALID,0.700827,
2002-03-27, 01:32:00,VALID,916.377,VALID,0,VALID,97.4342,VALID,-0.0169808,VALID,19.9942,VALID,120,VALID,0.575658,
2002-03-27, 01:33:00,VALID,916.362,VALID,0,VALID,97.382,VALID,0,VALID,19.9872,VALID,140,VALID,0.784206,
2002-03-27, 01:34:00,VALID,916.329,VALID,0,VALID,97.3782,VALID,0,VALID,19.9679,VALID,136,VALID,0.726563,
2002-03-27, 01:35:00,VALID,916.304,VALID,0,VALID,97.4392,VALID,-0.0509425,VALID,19.9746,VALID,126,VALID,0.714627,
2002-03-27, 01:36:00,VALID,916.296,VALID,0,VALID,97.5206,VALID,0,VALID,19.9775,VALID,128,VALID,0.63528,
2002-03-27, 01:37:00,VALID,916.294,VALID,0,VALID,97.5435,VALID,-0.0339617,VALID,20.0104,VALID,126,VALID,0.51647,
2002-03-27, 01:38:00,VALID,916.296,VALID,0,VALID,97.4481,VALID,0,VALID,20.0297,VALID,123,VALID,0.278795,
2002-03-27, 01:39:00,VALID,916.292,VALID,0,VALID,97.2358,VALID,-0.0169808,VALID,19.9967,VALID,114,VALID,0.436161,
2002-03-27, 01:40:00,VALID,916.297,VALID,0,VALID,97.4418,VALID,-0.0169808,VALID,20.0071,VALID,112,VALID,0.623355,
2002-03-27, 01:41:00,VALID,916.296,VALID,0,VALID,97.4164,VALID,0,VALID,20.0394,VALID,110,VALID,0.510817,
2002-03-27, 01:42:00,VALID,916.297,VALID,0,VALID,97.4621,VALID,-0.0169808,VALID,20.0553,VALID,130,VALID,0.60625,
2002-03-27, 01:43:00,VALID,916.273,VALID,0,VALID,97.3642,VALID,-0.0339617,VALID,20.0683,VALID,133,VALID,0.27097,
2002-03-27, 01:44:00,VALID,916.28,VALID,0,VALID,97.3464,VALID,-0.0169808,VALID,20.0844,VALID,132,VALID,0.42272,
2002-03-27, 01:45:00,VALID,916.275,VALID,0,VALID,97.279,VALID,-0.0339617,VALID,20.1011,VALID,112,VALID,0.471755,
2002-03-27, 01:46:00,VALID,916.258,VALID,0,VALID,96.984,VALID,-0.0339617,VALID,20.0782,VALID,105,VALID,0.194912,
2002-03-27, 01:47:00,VALID,916.266,VALID,0,VALID,96.7742,VALID,-0.0169808,VALID,20.03,VALID,105,VALID,0,
2002-03-27, 01:48:00,VALID,916.273,VALID,0,VALID,96.5059,VALID,-0.0509425,VALID,19.9654,VALID,105,VALID,0,
2002-03-27, 01:49:00,VALID,916.267,VALID,0,VALID,96.5466,VALID,-0.0509425,VALID,19.9196,VALID,105,VALID,0,
2002-03-27, 01:50:00,VALID,916.246,VALID,0,VALID,96.7068,VALID,0,VALID,19.9226,VALID,105,VALID,0,
2002-03-27, 01:51:00,VALID,916.226,VALID,0,VALID,96.7386,VALID,0,VALID,19.9323,VALID,105,VALID,0,
2002-03-27, 01:52:00,VALID,916.208,VALID,0,VALID,96.1715,VALID,0,VALID,19.8354,VALID,105,VALID,0,
2002-03-27, 01:53:00,VALID,916.181,VALID,0,VALID,95.9578,VALID,0.0169808,VALID,19.7062,VALID,105,VALID,0.153166,
2002-03-27, 01:54:00,VALID,916.163,VALID,0,VALID,96.338,VALID,0,VALID,19.6875,VALID,92,VALID,0.41174,
2002-03-27, 01:55:00,VALID,916.143,VALID,0,VALID,96.7081,VALID,0,VALID,19.6739,VALID,90,VALID,0.400127,
2002-03-27, 01:56:00,VALID,916.124,VALID,0,VALID,96.8772,VALID,0,VALID,19.6806,VALID,90,VALID,0.361384,
2002-03-27, 01:57:00,VALID,916.128,VALID,0,VALID,96.8937,VALID,-0.0169808,VALID,19.6612,VALID,90,VALID,0.19264,
2002-03-27, 01:58:00,VALID,916.145,VALID,0,VALID,96.9103,VALID,-0.0169808,VALID,19.6262,VALID,90,VALID,0.0736909,
2002-03-27, 01:59:00,VALID,916.147,VALID,0,VALID,96.9713,VALID,-0.0169808,VALID,19.6239,VALID,90,VALID,0.0640244,
2002-03-27, 02:00:00,VALID,916.145,VALID,0,VALID,96.9904,VALID,0,VALID,19.5877,VALID,111,VALID,0.419922,
2002-03-27, 02:01:00,VALID,916.156,VALID,0,VALID,96.9675,VALID,0,VALID,19.5389,VALID,133,VALID,0.836554,
2002-03-27, 02:02:00,VALID,916.144,VALID,0,VALID,97.4329,VALID,-0.0169808,VALID,19.5549,VALID,135,VALID,0.985197,
2002-03-27, 02:03:00,VALID,916.154,VALID,0,VALID,97.5842,VALID,-0.0509425,VALID,19.5643,VALID,132,VALID,0.754102,
2002-03-27, 02:04:00,VALID,916.149,VALID,0,VALID,97.6109,VALID,0,VALID,19.5616,VALID,131,VALID,0.681691,
2002-03-27, 02:05:00,VALID,916.147,VALID,0,VALID,97.78,VALID,-0.0339617,VALID,19.5616,VALID,127,VALID,0.801339,
2002-03-27, 02:06:00,VALID,916.144,VALID,0,VALID,97.9987,VALID,0,VALID,19.5777,VALID,129,VALID,0.974805,
2002-03-27, 02:07:00,VALID,916.144,VALID,0,VALID,98.1259,VALID,0,VALID,19.6165,VALID,103,VALID,0.709635,
2002-03-27, 02:08:00,VALID,916.148,VALID,0,VALID,98.1081,VALID,0,VALID,19.6063,VALID,104,VALID,0.813368,
2002-03-27, 02:09:00,VALID,916.138,VALID,0,VALID,98.0661,VALID,0,VALID,19.5901,VALID,100,VALID,0.688902,
2002-03-27, 02:10:00,VALID,916.124,VALID,0,VALID,98.1577,VALID,-0.0169808,VALID,19.5708,VALID,104,VALID,1.01891,
2002-03-27, 02:11:00,VALID,916.105,VALID,0,VALID,98.3294,VALID,0,VALID,19.6068,VALID,109,VALID,0.840666,
2002-03-27, 02:12:00,VALID,916.091,VALID,0,VALID,98.3675,VALID,0,VALID,19.6227,VALID,102,VALID,0.809966,
2002-03-27, 02:13:00,VALID,916.063,VALID,0,VALID,98.3281,VALID,0.0169808,VALID,19.6386,VALID,103,VALID,0.701823,
2002-03-27, 02:14:00,VALID,916.051,VALID,0,VALID,98.3535,VALID,-0.0169808,VALID,19.6229,VALID,103,VALID,0.784628,
2002-03-27, 02:15:00,VALID,916.029,VALID,0,VALID,98.4044,VALID,-0.0169808,VALID,19.6324,VALID,113,VALID,1.09683,
2002-03-27, 02:16:00,VALID,916.027,VALID,0,VALID,98.4705,VALID,-0.0169808,VALID,19.6518,VALID,109,VALID,0.897436,
2002-03-27, 02:17:00,VALID,916.023,VALID,0,VALID,98.4018,VALID,0,VALID,19.6776,VALID,111,VALID,0.914663,
2002-03-27, 02:18:00,VALID,916.03,VALID,0,VALID,98.3357,VALID,-0.0169808,VALID,19.6674,VALID,114,VALID,1.0492,
2002-03-27, 02:19:00,VALID,916.024,VALID,0,VALID,98.248,VALID,-0.0169808,VALID,19.6808,VALID,118,VALID,1.17044,
2002-03-27, 02:20:00,VALID,916.031,VALID,0,VALID,98.2175,VALID,0,VALID,19.6776,VALID,117,VALID,1.32292,
2002-03-27, 02:21:00,VALID,916.033,VALID,0,VALID,98.1335,VALID,-0.0169808,VALID,19.6943,VALID,126,VALID,1.17248,
2002-03-27, 02:22:00,VALID,916.021,VALID,0,VALID,98.0954,VALID,-0.0169808,VALID,19.7007,VALID,123,VALID,0.926011,
2002-03-27, 02:23:00,VALID,916.023,VALID,0,VALID,97.9492,VALID,-0.0169808,VALID,19.7039,VALID,100,VALID,0.997944,
2002-03-27, 02:24:00,VALID,916.027,VALID,0,VALID,97.9581,VALID,0,VALID,19.7171,VALID,100,VALID,1.18032,
2002-03-27, 02:25:00,VALID,916.029,VALID,0,VALID,98.0165,VALID,-0.0339617,VALID,19.7626,VALID,113,VALID,1.31858,
2002-03-27, 02:26:00,VALID,916.027,VALID,0,VALID,97.8716,VALID,-0.0169808,VALID,19.7949,VALID,122,VALID,1.17708,
2002-03-27, 02:27:00,VALID,916.012,VALID,0,VALID,97.7457,VALID,-0.0679233,VALID,19.7877,VALID,119,VALID,1.18627,
2002-03-27, 02:28:00,VALID,916.011,VALID,0,VALID,97.6376,VALID,-0.0849042,VALID,19.782,VALID,112,VALID,0.955025,
2002-03-27, 02:29:00,VALID,916.004,VALID,0,VALID,97.6046,VALID,-0.0509425,VALID,19.7919,VALID,125,VALID,0.991964,
2002-03-27, 02:30:00,VALID,915.985,VALID,0,VALID,97.5537,VALID,-0.0169808,VALID,19.7715,VALID,129,VALID,0.990402,
2002-03-27, 02:31:00,VALID,915.973,VALID,0,VALID,97.5194,VALID,-0.0679233,VALID,19.7621,VALID,140,VALID,0.916118,
2002-03-27, 02:32:00,VALID,915.944,VALID,0,VALID,97.5117,VALID,-0.0679233,VALID,19.7489,VALID,147,VALID,1.11919,
2002-03-27, 02:33:00,VALID,915.918,VALID,0,VALID,97.6224,VALID,-0.0509425,VALID,19.7489,VALID,139,VALID,0.952734,
2002-03-27, 02:34:00,VALID,915.906,VALID,0,VALID,97.7139,VALID,-0.0509425,VALID,19.772,VALID,137,VALID,0.988281,
2002-03-27, 02:35:00,VALID,915.895,VALID,0,VALID,97.7304,VALID,-0.0849042,VALID,19.772,VALID,131,VALID,0.78125,
2002-03-27, 02:36:00,VALID,915.886,VALID,0,VALID,97.7215,VALID,-0.0679233,VALID,19.7815,VALID,125,VALID,0.625401,
2002-03-27, 02:37:00,VALID,915.88,VALID,0,VALID,97.7139,VALID,-0.0339617,VALID,19.7817,VALID,144,VALID,0.453325,
2002-03-27, 02:38:00,VALID,915.877,VALID,0,VALID,97.7393,VALID,-0.0509425,VALID,19.7745,VALID,144,VALID,0.705729,
2002-03-27, 02:39:00,VALID,915.872,VALID,0,VALID,97.7381,VALID,0,VALID,19.7713,VALID,136,VALID,0.877455,
2002-03-27, 02:40:00,VALID,915.887,VALID,0,VALID,97.7025,VALID,-0.0169808,VALID,19.782,VALID,138,VALID,0.870508,
2002-03-27, 02:41:00,VALID,915.898,VALID,0,VALID,97.6936,VALID,-0.0339617,VALID,19.7688,VALID,133,VALID,0.678385,
2002-03-27, 02:42:00,VALID,915.908,VALID,0,VALID,97.7279,VALID,0,VALID,19.7427,VALID,131,VALID,0.741536,
2002-03-27, 02:43:00,VALID,915.929,VALID,0,VALID,97.7635,VALID,0,VALID,19.736,VALID,126,VALID,0.653505,
2002-03-27, 02:44:00,VALID,915.935,VALID,0,VALID,97.8042,VALID,-0.0509425,VALID,19.7231,VALID,125,VALID,0.660773,
2002-03-27, 02:45:00,VALID,915.92,VALID,0,VALID,97.9021,VALID,-0.0509425,VALID,19.7293,VALID,131,VALID,0.610431,
2002-03-27, 02:46:00,VALID,915.924,VALID,0,VALID,97.967,VALID,0,VALID,19.7425,VALID,129,VALID,0.731419,
2002-03-27, 02:47:00,VALID,915.906,VALID,0,VALID,98.0267,VALID,-0.0169808,VALID,19.7522,VALID,126,VALID,0.604688,
2002-03-27, 02:48:00,VALID,915.905,VALID,0,VALID,98.0178,VALID,0,VALID,19.7648,VALID,126,VALID,0.499589,
2002-03-27, 02:49:00,VALID,915.896,VALID,0,VALID,98.0725,VALID,-0.0339617,VALID,19.7815,VALID,114,VALID,0.69109,
2002-03-27, 02:50:00,VALID,915.873,VALID,0,VALID,98.0814,VALID,-0.0339617,VALID,19.7976,VALID,114,VALID,0.733232,
2002-03-27, 02:51:00,VALID,915.869,VALID,0,VALID,98.0687,VALID,0,VALID,19.8103,VALID,125,VALID,0.660937,
2002-03-27, 02:52:00,VALID,915.872,VALID,0,VALID,98.0611,VALID,-0.0169808,VALID,19.8332,VALID,124,VALID,0.948602,
2002-03-27, 02:53:00,VALID,915.867,VALID,0,VALID,97.9924,VALID,-0.0339617,VALID,19.8528,VALID,122,VALID,0.923878,
2002-03-27, 02:54:00,VALID,915.863,VALID,0,VALID,97.9453,VALID,-0.0339617,VALID,19.8456,VALID,120,VALID,0.850977,
2002-03-27, 02:55:00,VALID,915.861,VALID,0,VALID,97.8729,VALID,-0.0339617,VALID,19.8563,VALID,130,VALID,0.826923,
2002-03-27, 02:56:00,VALID,915.848,VALID,0,VALID,97.808,VALID,-0.0339617,VALID,19.8424,VALID,111,VALID,0.962054,
2002-03-27, 02:57:00,VALID,915.825,VALID,0,VALID,97.8067,VALID,0,VALID,19.8521,VALID,120,VALID,1.11426,
2002-03-27, 02:58:00,VALID,915.804,VALID,0,VALID,97.7406,VALID,0,VALID,19.8712,VALID,110,VALID,1.46181,
2002-03-27, 02:59:00,VALID,915.8,VALID,0,VALID,97.6351,VALID,0,VALID,19.8973,VALID,104,VALID,1.04774,
2002-03-27, 03:00:00,VALID,915.798,VALID,0,VALID,97.5893,VALID,0,VALID,19.9201,VALID,111,VALID,1.49559,
2002-03-27, 03:01:00,VALID,915.777,VALID,0,VALID,97.4494,VALID,0,VALID,19.936,VALID,110,VALID,1.11637,
2002-03-27, 03:02:00,VALID,915.758,VALID,0,VALID,97.3299,VALID,0,VALID,19.9522,VALID,100,VALID,0.976974,
2002-03-27, 03:03:00,VALID,915.753,VALID,0,VALID,97.2765,VALID,-0.0169808,VALID,19.9482,VALID,104,VALID,1.13155,
2002-03-27, 03:04:00,VALID,915.732,VALID,0,VALID,97.1811,VALID,0,VALID,19.9748,VALID,103,VALID,1.09093,
2002-03-27, 03:05:00,VALID,915.72,VALID,0,VALID,97.1417,VALID,0,VALID,19.9912,VALID,110,VALID,1.04624,
2002-03-27, 03:06:00,VALID,915.716,VALID,0,VALID,97.129,VALID,-0.0169808,VALID,20.0071,VALID,98,VALID,1.06024,
2002-03-27, 03:07:00,VALID,915.718,VALID,0,VALID,97.0094,VALID,0,VALID,20.024,VALID,101,VALID,0.957332,
2002-03-27, 03:08:00,VALID,915.722,VALID,0,VALID,96.942,VALID,0,VALID,19.9999,VALID,97,VALID,0.957732,
2002-03-27, 03:09:00,VALID,915.711,VALID,0,VALID,96.8823,VALID,-0.0339617,VALID,20.0064,VALID,101,VALID,0.877323,
2002-03-27, 03:10:00,VALID,915.707,VALID,0,VALID,96.9153,VALID,0.0169808,VALID,20.0166,VALID,101,VALID,1.03433,
2002-03-27, 03:11:00,VALID,915.711,VALID,0,VALID,96.8963,VALID,-0.0169808,VALID,20.0327,VALID,103,VALID,0.969752,
2002-03-27, 03:12:00,VALID,915.715,VALID,0,VALID,96.7933,VALID,0,VALID,20.026,VALID,94,VALID,0.850962,
2002-03-27, 03:13:00,VALID,915.724,VALID,0,VALID,96.7627,VALID,0,VALID,20.0195,VALID,97,VALID,0.788603,
2002-03-27, 03:14:00,VALID,915.713,VALID,0,VALID,96.7793,VALID,0,VALID,20.0128,VALID,103,VALID,0.825452,
2002-03-27, 03:15:00,VALID,915.702,VALID,0,VALID,96.8301,VALID,0,VALID,20.0225,VALID,113,VALID,0.917652,
2002-03-27, 03:16:00,VALID,915.679,VALID,0,VALID,96.8327,VALID,0,VALID,20.0123,VALID,113,VALID,0.853733,
2002-03-27, 03:17:00,VALID,915.657,VALID,0,VALID,96.7564,VALID,0,VALID,20.0225,VALID,111,VALID,0.599826,
2002-03-27, 03:18:00,VALID,915.656,VALID,0,VALID,96.7004,VALID,0.0169808,VALID,20.0193,VALID,116,VALID,0.529194,
2002-03-27, 03:19:00,VALID,915.641,VALID,0,VALID,96.661,VALID,0,VALID,20.0069,VALID,120,VALID,0.295186,
2002-03-27, 03:20:00,VALID,915.647,VALID,0,VALID,96.6903,VALID,0,VALID,19.9877,VALID,126,VALID,0.413616,
2002-03-27, 03:21:00,VALID,915.653,VALID,0,VALID,96.7284,VALID,0,VALID,19.9676,VALID,120,VALID,0.370759,
2002-03-27, 03:22:00,VALID,915.654,VALID,0,VALID,96.6877,VALID,0,VALID,19.9579,VALID,100,VALID,0.36986,
2002-03-27, 03:23:00,VALID,915.664,VALID,0,VALID,96.4525,VALID,0,VALID,19.9065,VALID,87,VALID,0.0380609,
2002-03-27, 03:24:00,VALID,915.656,VALID,0,VALID,96.2465,VALID,0,VALID,19.819,VALID,87,VALID,0.1625,
2002-03-27, 03:25:00,VALID,915.658,VALID,0,VALID,96.2592,VALID,0,VALID,19.7574,VALID,84,VALID,0.306332,
2002-03-27, 03:26:00,VALID,915.656,VALID,0,VALID,96.4487,VALID,0,VALID,19.7119,VALID,80,VALID,0.4356,
2002-03-27, 03:27:00,VALID,915.646,VALID,0,VALID,96.7043,VALID,0.0169808,VALID,19.7189,VALID,77,VALID,0.569311,
2002-03-27, 03:28:00,VALID,915.633,VALID,0,VALID,96.942,VALID,0,VALID,19.7161,VALID,77,VALID,0.690104,
2002-03-27, 03:29:00,VALID,915.63,VALID,0,VALID,97.2002,VALID,0,VALID,19.7154,VALID,76,VALID,0.932292,
2002-03-27, 03:30:00,VALID,915.63,VALID,0,VALID,97.4176,VALID,0.0169808,VALID,19.7415,VALID,79,VALID,0.965402,
2002-03-27, 03:31:00,VALID,915.642,VALID,0,VALID,97.6147,VALID,0,VALID,19.774,VALID,83,VALID,1.06191,
2002-03-27, 03:32:00,VALID,915.632,VALID,0,VALID,97.5575,VALID,0.0169808,VALID,19.7869,VALID,83,VALID,1.12782,
2002-03-27, 03:33:00,VALID,915.618,VALID,0,VALID,97.5829,VALID,0.0169808,VALID,19.7999,VALID,87,VALID,1.12847,